Weather History for KSGF - January, 2011

Change the Weather History Date:

Sunday, January 23, 2011

  Actual Average Record
Temperature  
Mean Temperature 34 °F 33 °F  
Max Temperature 44 °F 43 °F 75 °F (1909)
Min Temperature 23 °F 22 °F -10 °F (1963)
Degree Days  
Heating Degree Days 31 32  
Month to date heating degree days 855 751  
Since 1 July heating degree days 2631 2561  
Cooling Degree Days 0 0  
Month to date cooling degree days 0 0  
Year to date cooling degree days 0 0  
Moisture  
Dew Point 27 °F    
Average Humidity 79    
Maximum Humidity 96    
Minimum Humidity 62    
Precipitation  
Precipitation 0.00 in 0.07 in 1.12 in (2010)
Month to date precipitation 0.26 1.88  
Year to date precipitation 0.26 1.88  
Snow  
Snow 0.00 in - - ()
Month to date snowfall 3.0  
Since 1 July snowfall 4.0  
Snow Depth 0.00 in    
Sea Level Pressure  
Sea Level Pressure 30.00 in    
Wind  
Wind Speed 11 mph (SW)    
Max Wind Speed 17 mph    
Max Gust Speed 21 mph    
Visibility 7 miles    
Events      
T = Trace of Precipitation, MM = Missing Value Source: NWS Daily Summary

Daily Weather History Graph

Daily Weather History Graph

Search for Another Location

Airport or City:

Trip Planner

Search our weather history database for the weather conditions in past years. The results will help you decide how hot, cold, wet, or windy it might be!

Date:

Astronomy

Jan. 23, 2011 Rise Set
Actual Time 7:23 AM CST 5:28 PM CST
Civil Twilight 6:55 AM CST 5:56 PM CST
Nautical Twilight 6:23 AM CST 6:27 PM CST
Astronomical Twilight 5:52 AM CST 6:58 PM CST
Moon 10:21 PM CST (1/23) 9:27 AM CST (1/23)
Length of Visible Light 11h 01m
Length of Day
10h 05m
Waning Gibbous, 80% of the Moon is Illuminated
Jan 23
Waning Gibbous
Jan 26
Last Quarter
Feb 2
New
Feb 11
First Quarter
Feb 18
Full

Hourly Weather History & Observations

Time (CST) Temp. Windchill Dew Point Humidity Pressure Visibility Wind Dir Wind Speed Gust Speed Precip Events Conditions
12:52 AM 35.6 °F 28.0 °F 28.4 °F 75% 29.92 in 10.0 mi SE 10.4 mph - N/A   Overcast
1:52 AM 36.0 °F 26.7 °F 28.0 °F 73% 29.94 in 10.0 mi SSE 15.0 mph - N/A   Overcast
2:52 AM 36.0 °F 26.7 °F 28.0 °F 73% 29.94 in 10.0 mi SSE 15.0 mph - N/A   Overcast
3:52 AM 36.0 °F 27.5 °F 27.0 °F 70% 29.94 in 10.0 mi SE 12.7 mph - N/A   Overcast
4:52 AM 36.0 °F 28.0 °F 27.0 °F 70% 29.94 in 10.0 mi SSE 11.5 mph - N/A   Overcast
5:52 AM 35.1 °F 25.9 °F 28.0 °F 76% 29.96 in 10.0 mi SSE 13.8 mph - N/A   Overcast
6:52 AM 34.0 °F 24.6 °F 27.0 °F 75% 29.97 in 10.0 mi SSE 13.8 mph - N/A   Clear
7:52 AM 34.0 °F 25.5 °F 28.0 °F 79% 29.98 in 10.0 mi SSE 11.5 mph - N/A   Clear
8:52 AM 35.1 °F 27.4 °F 28.0 °F 76% 29.99 in 10.0 mi SSE 10.4 mph - N/A   Clear
9:52 AM 37.0 °F 29.3 °F 28.9 °F 73% 30.01 in 10.0 mi SSE 11.5 mph - N/A   Clear
10:52 AM 37.9 °F 30.0 °F 28.9 °F 70% 30.01 in 10.0 mi SSE 12.7 mph - N/A   Clear
11:52 AM 43.0 °F 36.4 °F 30.9 °F 62% 29.99 in 10.0 mi South 12.7 mph - N/A   Clear
12:50 PM 44.6 °F 39.2 °F 30.2 °F 57% 29.95 in 10.0 mi SW 10.4 mph - N/A   Mostly Cloudy
12:52 PM 43.0 °F 36.8 °F 30.9 °F 62% 29.98 in 10.0 mi SW 11.5 mph - N/A   Mostly Cloudy
1:52 PM 39.9 °F 32.9 °F 32.0 °F 73% 29.98 in 9.0 mi West 11.5 mph - N/A   Overcast
2:12 PM 37.4 °F 31.4 °F 32.0 °F 81% 29.96 in 6.0 mi WNW 8.1 mph - N/A   Haze
2:52 PM 36.0 °F 27.5 °F 30.9 °F 82% 29.98 in 6.0 mi WNW 12.7 mph - N/A   Haze
3:22 PM 33.8 °F 23.9 °F 30.2 °F 87% 29.97 in 3.0 mi West 15.0 mph - N/A   Overcast
3:41 PM 33.8 °F 25.3 °F 30.2 °F 87% 29.97 in 2.0 mi West 11.5 mph - N/A   Overcast
3:52 PM 33.1 °F 24.4 °F 30.0 °F 89% 30.00 in 2.0 mi West 11.5 mph - N/A   Overcast
4:52 PM 32.0 °F 23.6 °F 28.9 °F 88% 30.04 in 3.0 mi West 10.4 mph - N/A   Overcast
5:52 PM 27.0 °F 16.7 °F 24.1 °F 89% 30.06 in 5.0 mi NW 11.5 mph - N/A   Overcast
6:52 PM 25.0 °F 17.1 °F 23.0 °F 92% 30.08 in 4.0 mi West 6.9 mph - N/A   Overcast
7:52 PM 24.1 °F 16.0 °F 21.9 °F 91% 30.09 in 5.0 mi West 6.9 mph - N/A   Overcast
8:52 PM 24.1 °F 17.0 °F 21.0 °F 88% 30.09 in 5.0 mi WNW 5.8 mph - N/A   Overcast
9:28 PM 23.0 °F 14.7 °F 21.2 °F 93% 30.04 in 5.0 mi WNW 6.9 mph - N/A   Overcast
9:52 PM 23.0 °F 15.8 °F 21.0 °F 92% 30.08 in 4.0 mi West 5.8 mph - N/A   Overcast
10:52 PM 23.0 °F 17.0 °F 21.0 °F 92% 30.07 in 4.0 mi West 4.6 mph - N/A   Overcast
11:52 PM 23.0 °F 18.4 °F 21.0 °F 92% 30.07 in 4.0 mi West 3.5 mph - N/A   Overcast